Location: Saleratus Ranch
(37.7914°N, 109.6108°W)
Time: 14:12:14
(UTC-06:00)

Tiangong 2 - Visible Passes

Search period start: 20 July 2018 00:00
Search period end: 30 July 2018 00:00
Orbit: 386 x 394 km, 42.8° (Epoch: 20 July)

Date Brightness Start Highest point End Pass type
(mag) Time Alt. Az. Time Alt. Az. Time Alt. Az.
20 Jul 2.6 21:08:52 10° WNW 21:11:48 33° N 21:14:43 10° ENE visible
20 Jul 1.6 22:45:43 10° WNW 22:48:20 57° WNW 22:48:20 57° WNW visible
21 Jul 1.5 21:48:02 10° WNW 21:51:10 57° NNE 21:53:03 21° E visible
21 Jul 4.2 23:25:10 10° W 23:25:22 11° W 23:25:22 11° W visible
22 Jul 1.6 22:27:13 10° WNW 22:30:06 46° SW 22:30:06 46° SW visible
23 Jul 1.0 21:29:26 10° WNW 21:32:37 84° SSW 21:34:52 18° ESE visible
24 Jul 2.6 22:08:56 10° W 22:11:34 24° SW 22:11:59 23° SSW visible
25 Jul 1.8 21:10:54 10° WNW 21:13:57 42° SSW 21:16:51 11° SE visible
26 Jul 3.6 21:51:22 10° WSW 21:52:43 12° SW 21:54:04 10° SSW visible
